sat.trackr.live / text

‹ back to catalog

NUSAT-45 (UZMASAT-1)

NORAD 62640 · 2025-009AH

PAYLOAD ACTIVE UNKNOWN

§ Identity

Operator
Country
ARGN
Launch date
2025-01-14
Launch site
AFWTR
Launch vehicle
Mass (kg)
RCS (m²)

External: N2YO · Heavens-Above · Gunter

§ Orbital elements

Epoch: 2026-09-22T10:35:30.151680Z

Period
94.12 min
Inclination
97.3538°
Eccentricity
0.0002256
Mean motion
15.30015033 rev/d
Perigee alt
474.2 km
Apogee alt
477.3 km
Semi-major
6,853.9 km
B*
2.0286e-4
RAAN
345.6972°
Arg perigee
34.4402°
Mean anomaly
325.6984°
Rev number
9,379

§ Raw data

NUSAT-45 (UZMASAT-1)1 62640U 25009AH  26265.44132120  .00005818  00000+0  20286-3 0  99942 62640  97.3538 345.6972 0002256  34.4402 325.6984 15.30015033 93799

JSON: /api/v1/satellites/62640 · /tle

For live sub-satellite position, see the globe view (requires WebGL).

§ Visibility from observer

Set your observer location to see the next 7 days of passes ≥ 10°. The values pass through the URL so the page stays shareable.

No JS? Fill the form by hand. The geolocation button needs JavaScript.